Location: Staunton
(38.1490°N, 79.0720°W)
Time: 11:50:37
(UTC-04:00)

ISS - Pass Details

Date: 21 October 2021
Orbit: 417 x 423 km, 51.6° (Epoch: 23 October)

Event Time Altitude Azimuth Distance (km) Brightness Sun altitude
Exits shadow 06:22:00 - 207° (SSW) 1,853 -0.7 -14.3°
Reaches altitude 10° 06:22:56 10° 202° (SSW) 1,492 -1.2 -14.1°
Maximum altitude 06:26:02 36° 134° (SE) 685 -2.2 -13.5°
Drops below altitude 10° 06:29:09 10° 67° (ENE) 1,497 0.1 -12.9°
Sets 06:31:20 0° 58° (ENE) 2,363 1.0 -12.5°
